Date,TemperatureHighF,TemperatureAvgF,TemperatureLowF,DewpointHighF,DewpointAvgF,DewpointLowF,HumidityHigh,HumidityAvg,HumidityLow,PressureMaxIn,PressureMinIn,WindSpeedMaxMPH,WindSpeedAvgMPH,GustSpeedMaxMPH,PrecipitationSumIn
2013-1-1,33.8,31.4,29.5,32.1,29.9,24.4,100,95,68,30.20,30.00,7,0,7,0.01
2013-1-2,29.5,24.9,19.4,29.4,22.7,18.0,100,91,73,30.28,30.06,8,1,9,0.00
2013-1-3,35.9,23.5,13.4,25.1,19.3,12.0,95,85,60,30.35,30.24,8,0,8,0.01
2013-1-4,28.5,25.4,20.2,22.2,20.7,18.0,93,82,76,30.42,30.33,12,2,14,0.00
2013-1-5,39.6,28.3,15.5,29.2,22.2,13.9,95,79,53,30.50,30.26,11,0,11,0.05
2013-1-6,38.0,35.2,30.6,31.3,28.6,27.0,93,77,71,30.29,30.09,11,2,13,0.10
2013-1-7,41.5,30.9,25.4,28.9,24.2,21.3,92,77,55,30.51,30.28,13,1,13,0.02
2013-1-8,52.4,40.3,27.3,30.0,25.0,22.3,85,56,33,30.45,30.33,12,2,13,0.03
2013-1-9,49.4,45.5,38.2,46.6,40.5,23.9,100,84,43,30.51,30.32,9,1,10,0.11
2013-1-10,55.2,44.4,33.0,46.0,34.9,22.0,100,75,28,30.56,30.28,32,2,32,0.00
2013-1-11,57.4,52.2,46.4,54.2,46.4,36.8,94,81,60,30.28,30.01,33,6,33,0.05
2013-1-12,70.5,60.4,50.4,59.2,54.5,48.8,97,82,62,30.14,29.94,24,2,24,0.00
2013-1-13,66.7,62.7,56.7,56.4,53.5,50.8,94,72,61,30.01,29.87,25,4,25,0.10
2013-1-14,58.6,41.0,33.1,56.0,40.5,33.1,100,98,88,30.33,29.93,15,2,16,0.86
2013-1-15,36.6,34.3,32.8,36.2,34.1,32.6,100,99,99,30.32,30.04,11,1,11,0.84
2013-1-16,52.4,38.0,33.3,48.3,37.6,33.0,100,99,82,30.10,29.89,16,1,17,0.46
2013-1-17,35.7,31.8,28.8,35.7,30.3,26.8,100,94,87,30.29,30.07,10,1,10,0.00
2013-1-18,38.7,29.7,20.5,26.7,18.3,11.2,93,66,38,30.55,30.29,16,2,16,0.00
2013-1-19,52.7,42.9,33.3,24.2,18.4,11.7,59,38,28,30.42,30.04,18,5,23,0.00
2013-1-20,44.5,37.6,24.9,31.5,22.2,10.9,74,54,39,30.14,30.01,19,3,19,0.00
2013-1-21,38.2,26.8,17.2,18.4,13.0,5.7,86,58,31,30.13,29.94,25,3,25,0.00
2013-1-22,17.4,11.5,6.2,6.2,1.2,-3.1,84,64,41,30.38,30.11,18,3,18,0.00
2013-1-23,22.0,15.1,5.9,15.3,4.0,-3.2,84,62,34,30.43,30.13,14,2,14,0.00
2013-1-24,19.3,14.3,3.6,15.9,9.4,0.4,90,81,59,30.59,30.12,17,2,17,0.00
2013-1-25,26.3,20.2,8.1,25.3,14.4,2.3,96,80,53,30.51,30.10,18,2,20,0.00
2013-1-26,24.7,23.0,21.7,23.5,21.4,19.3,95,93,89,30.49,30.20,11,1,11,0.00
2013-1-27,40.9,29.6,13.0,27.2,20.2,10.9,94,71,45,30.55,30.38,11,1,11,0.17
2013-1-28,56.4,46.5,33.9,48.9,42.3,24.5,97,86,58,30.38,30.15,19,4,20,0.46
2013-1-29,70.9,58.2,49.2,55.3,50.6,48.1,100,78,55,30.15,29.84,17,4,17,0.01
2013-1-30,66.9,57.1,44.6,56.8,52.6,42.8,96,86,70,29.84,29.32,27,6,31,1.91
2013-1-31,44.3,26.1,22.6,42.7,22.2,18.3,94,85,72,29.96,29.31,26,4,26,0.08
2013-2-1,26.6,12.1,0.8,25.4,7.7,-1.7,95,83,59,30.45,29.84,21,3,22,0.00
2013-2-2,28.1,17.0,0.8,25.4,13.5,-1.9,96,87,45,30.44,30.09,14,2,14,0.00
2013-2-3,27.4,24.3,20.1,25.4,21.8,16.3,96,90,83,30.15,29.92,18,2,18,0.00
2013-2-4,40.1,28.7,17.9,32.5,21.4,13.5,96,75,55,30.18,29.94,22,3,23,0.14
2013-2-5,41.9,37.2,33.0,36.4,33.7,31.8,97,87,76,29.97,29.89,15,2,15,0.10
2013-2-6,40.5,33.4,26.3,33.9,28.9,24.8,94,84,66,30.30,29.97,13,1,13,0.00
2013-2-7,44.4,38.4,26.4,34.6,30.4,24.8,94,73,62,30.30,29.99,23,5,23,0.00
2013-2-8,40.1,34.6,27.2,39.0,31.5,24.5,96,88,82,30.23,29.88,25,4,25,0.07
2013-2-9,37.9,27.8,21.7,24.7,19.4,15.6,91,72,44,30.41,30.22,13,2,13,0.00
2013-2-10,51.2,42.1,26.8,37.0,19.3,7.2,86,42,28,30.36,29.99,29,5,29,0.02
2013-2-11,59.8,50.5,39.8,50.0,35.6,17.3,89,61,28,30.00,29.83,30,6,30,0.01
2013-2-12,49.6,39.2,31.3,27.1,23.9,19.2,76,56,32,30.11,29.93,17,2,17,0.00
2013-2-13,41.9,33.9,29.3,34.6,28.8,22.7,97,83,52,29.94,29.61,15,1,15,0.17
2013-2-14,47.4,37.1,27.8,35.2,29.4,25.9,97,75,48,30.06,29.92,14,2,14,0.23
2013-2-15,42.9,33.4,27.4,35.9,30.4,26.1,96,89,74,30.09,30.01,11,1,11,0.00
2013-2-16,28.2,23.4,14.4,27.0,20.5,12.4,95,89,73,30.08,29.97,13,1,14,0.00
2013-2-17,23.2,14.8,6.9,12.4,6.4,3.4,89,70,48,30.35,30.03,17,3,18,0.00
2013-2-18,51.2,29.9,3.8,32.0,17.3,1.2,90,63,42,30.42,30.02,25,3,25,0.17
2013-2-19,44.2,38.1,28.4,39.1,27.7,15.1,92,67,48,30.03,29.78,29,6,29,0.05
2013-2-20,28.6,23.3,17.6,16.4,13.8,11.5,79,67,55,30.27,30.00,19,3,20,0.00
2013-2-21,38.4,22.2,9.4,21.9,14.5,7.3,92,74,44,30.39,30.21,9,1,9,0.00
2013-2-22,43.3,38.3,32.5,38.1,31.8,17.7,88,78,43,30.27,30.00,28,6,28,0.09
2013-2-23,55.9,45.2,33.7,44.4,38.9,31.1,92,79,54,30.02,29.83,12,1,13,0.00
2013-2-24,42.7,33.4,24.2,31.2,25.5,20.3,96,75,44,30.15,29.86,17,2,17,0.00
2013-2-25,50.0,32.6,18.8,26.1,20.7,17.1,94,66,31,30.20,30.01,16,1,16,0.00
2013-2-26,45.2,40.3,35.4,39.7,32.9,22.0,91,75,58,30.04,29.49,39,7,40,0.09
2013-2-27,41.3,36.7,30.9,38.3,33.4,29.8,96,88,72,29.76,29.58,12,2,14,0.12
2013-2-28,30.8,29.0,28.0,29.8,27.4,25.4,97,94,89,29.91,29.72,11,2,11,0.00
2013-3-1,30.6,28.7,25.9,29.0,27.1,24.2,97,93,84,29.99,29.88,12,2,12,0.00
2013-3-2,26.0,23.5,21.8,24.2,20.9,19.3,94,89,78,30.03,29.95,9,2,9,0.00
2013-3-3,24.7,21.3,18.9,20.3,18.5,16.1,94,89,78,30.10,30.01,11,2,12,0.00
2013-3-4,37.0,26.3,19.1,21.0,16.2,12.3,89,67,44,30.23,30.10,11,2,11,0.11
2013-3-5,48.4,36.9,25.6,39.2,32.9,20.3,96,86,68,30.14,29.55,22,3,22,0.38
2013-3-6,32.5,28.3,25.4,31.5,26.9,24.0,97,95,90,30.20,29.64,10,1,11,0.00
2013-3-7,31.0,29.0,27.4,29.6,28.0,26.7,97,96,95,30.35,30.19,8,1,8,0.00
2013-3-8,41.4,31.8,25.4,29.8,26.7,23.9,96,82,58,30.44,30.31,12,2,12,0.23
2013-3-9,58.9,41.4,20.8,34.8,26.7,19.3,96,62,30,30.42,30.20,19,2,21,0.01
2013-3-10,65.8,54.5,46.5,36.4,31.5,27.8,49,42,31,30.21,30.00,26,5,27,0.00
2013-3-11,55.2,52.4,49.5,48.8,40.3,32.0,95,65,44,30.02,29.72,31,6,31,0.13
2013-3-12,50.2,36.9,32.6,48.6,34.2,29.1,97,90,79,30.06,29.76,12,2,13,0.39
2013-3-13,34.6,29.0,22.9,30.6,25.2,19.1,94,86,68,30.25,30.02,19,3,19,0.00
2013-3-14,38.3,24.6,20.9,20.6,18.2,13.9,93,78,40,30.36,30.24,19,3,19,0.00
2013-3-15,55.4,37.8,19.7,38.2,27.3,16.2,91,68,46,30.26,29.92,15,2,18,0.01
2013-3-16,68.5,51.8,39.2,54.5,45.2,35.8,97,80,49,29.92,29.60,21,3,22,0.37
2013-3-17,46.7,39.5,36.3,42.7,38.1,35.3,97,95,86,30.06,29.89,8,1,8,0.06
2013-3-18,46.6,38.6,35.5,41.7,35.3,31.4,96,88,81,30.03,29.77,39,7,39,0.25
2013-3-19,49.6,41.4,33.7,43.6,26.5,5.5,97,62,22,30.06,29.77,29,4,29,0.15
2013-3-20,46.2,34.9,25.8,26.3,15.3,7.5,93,47,26,30.08,29.82,25,4,25,0.00
2013-3-21,27.0,20.7,14.3,24.2,14.7,9.4,93,78,61,30.07,29.87,18,3,18,0.00
2013-3-22,39.7,23.7,8.5,19.6,13.3,6.2,92,68,36,30.15,30.06,14,1,14,0.05
2013-3-23,49.2,33.3,20.7,25.5,20.1,16.8,88,62,32,30.11,29.95,10,1,10,0.00
2013-3-24,36.2,34.0,30.8,32.8,30.9,29.5,95,88,84,29.56,29.40,30,5,32,0.20
2013-3-25,33.4,30.3,28.0,29.7,28.0,26.4,96,91,80,29.85,29.46,18,4,19,0.03
2013-3-26,36.7,30.8,28.2,32.4,28.6,26.5,96,92,75,30.19,29.85,14,3,15,0.00
2013-3-27,38.1,30.4,27.4,30.7,26.7,24.9,94,86,67,30.30,30.19,13,2,14,0.00
2013-3-28,41.5,34.1,27.2,28.2,25.7,21.9,92,72,53,30.33,30.26,15,2,15,0.10
2013-3-29,51.4,38.7,28.3,30.4,27.7,24.1,96,68,38,30.35,30.22,13,1,13,0.00
2013-3-30,58.4,43.3,29.2,34.1,29.7,26.8,91,62,31,30.28,30.03,11,1,11,0.00
2013-3-31,50.9,47.3,42.8,48.7,42.7,30.2,100,86,48,30.03,29.77,21,3,24,0.44
2013-4-1,45.4,39.7,31.2,42.8,37.0,23.9,100,90,72,30.06,29.82,17,2,17,0.12
2013-4-2,42.5,32.6,25.6,23.9,17.9,12.2,84,57,32,30.24,30.06,16,2,19,0.00
2013-4-3,45.7,32.5,20.0,23.6,16.4,8.6,91,56,25,30.39,30.23,17,2,18,0.00
2013-4-4,45.2,35.5,26.7,36.5,21.6,12.9,95,60,33,30.38,30.02,16,2,18,0.26
2013-4-5,56.6,44.5,36.6,39.0,33.5,26.6,100,70,34,30.10,29.97,14,2,16,0.08
2013-4-6,67.1,48.3,26.8,34.3,26.9,12.7,92,51,18,30.24,30.08,22,2,23,0.00
2013-4-7,72.0,58.8,48.3,41.8,36.8,29.8,62,45,32,30.10,29.95,19,5,23,0.00
2013-4-8,76.3,63.2,51.2,49.4,44.8,38.6,76,52,34,30.05,29.92,20,3,20,0.00
2013-4-9,81.7,65.9,51.2,57.1,49.7,45.6,85,59,34,30.11,29.94,17,2,18,0.00
2013-4-10,85.1,69.8,55.4,57.8,51.5,46.1,81,55,33,30.02,29.81,17,2,17,0.00
2013-4-11,82.4,72.5,57.5,56.1,51.7,42.3,71,50,26,29.83,29.57,21,3,21,0.00
2013-4-12,69.6,58.2,46.7,59.9,49.2,34.4,95,74,44,29.85,29.47,20,4,25,0.63
2013-4-13,62.9,50.7,38.3,38.4,33.0,25.5,86,54,26,30.04,29.85,24,2,24,0.00
2013-4-14,72.9,55.6,33.7,42.3,35.6,29.1,89,52,26,30.12,29.94,15,2,16,0.00
2013-4-15,64.5,55.6,50.6,51.3,48.5,39.8,90,77,41,30.11,29.98,25,5,26,0.10
2013-4-16,81.5,66.9,55.5,59.1,54.7,51.0,94,68,40,30.22,30.05,26,4,29,0.09
2013-4-17,74.8,63.7,57.2,60.6,57.7,54.9,97,82,56,30.19,30.04,9,1,10,0.11
2013-4-18,79.3,69.7,63.7,59.8,56.2,51.8,79,63,47,30.05,29.78,24,6,27,0.00
2013-4-19,68.8,57.0,40.6,60.5,51.1,34.1,96,82,69,29.91,29.52,25,5,28,0.86
2013-4-20,52.7,42.2,32.7,34.5,27.8,21.8,81,59,31,30.38,29.91,24,3,24,0.00
2013-4-21,59.2,44.3,28.6,34.2,28.7,25.0,91,58,31,30.51,30.37,19,2,19,0.00
2013-4-22,63.9,51.3,39.2,34.4,28.7,20.5,66,44,23,30.42,30.22,16,3,17,0.00
2013-4-23,72.7,57.3,42.3,44.3,35.2,25.3,71,46,24,30.23,29.99,15,2,15,0.00
2013-4-24,78.5,59.1,39.3,57.0,46.9,37.2,95,67,38,30.15,29.81,32,5,32,0.20
2013-4-25,57.4,41.2,31.5,37.2,31.5,25.4,96,71,29,30.38,30.15,12,1,12,0.00
2013-4-26,63.6,48.0,29.7,38.8,32.0,26.5,94,58,26,30.47,30.34,10,1,10,0.00
2013-4-27,70.0,55.0,41.0,46.6,38.7,32.0,75,56,31,30.37,30.15,17,2,17,0.00
2013-4-28,59.7,53.9,49.7,50.6,48.2,45.8,94,81,70,30.15,29.94,31,7,31,0.35
2013-4-29,63.3,56.2,49.6,55.2,51.2,48.1,97,84,71,30.01,29.94,22,3,22,0.00
2013-4-30,78.2,61.8,45.9,56.1,51.0,45.3,100,72,38,30.13,29.99,17,2,17,0.01
2013-5-1,74.2,62.8,53.0,53.6,48.8,39.8,83,62,40,30.25,30.10,16,2,16,0.00
2013-5-2,75.2,62.5,50.6,50.4,46.6,40.6,81,58,40,30.26,30.15,17,3,19,0.00
2013-5-3,70.3,58.8,48.6,47.4,41.0,30.3,80,55,24,30.18,30.09,26,4,26,0.00
2013-5-4,68.3,56.2,43.9,45.0,39.3,33.8,74,55,30,30.09,30.01,25,4,28,0.00
2013-5-5,67.5,56.5,48.2,47.6,34.9,10.4,76,49,18,30.06,29.93,23,4,26,0.00
2013-5-6,63.2,56.2,51.9,53.6,49.0,46.0,96,77,67,29.94,29.87,24,5,24,0.43
2013-5-7,59.3,52.3,47.3,56.2,50.8,47.3,100,95,81,29.96,29.88,9,1,9,0.85
2013-5-8,54.7,52.2,47.7,51.2,49.4,46.9,100,91,83,30.01,29.87,13,1,13,0.22
2013-5-9,73.6,59.7,45.8,57.9,52.1,45.8,100,79,47,30.07,29.97,14,1,16,0.00
2013-5-10,78.2,64.3,52.8,61.0,56.2,50.6,94,77,46,30.05,29.85,19,2,19,0.10
2013-5-11,70.3,59.7,51.1,59.6,55.9,48.6,97,88,65,29.87,29.77,17,2,17,0.43
2013-5-12,53.4,46.3,37.1,48.5,36.7,29.4,95,72,44,30.12,29.84,19,2,19,0.03
2013-5-13,53.1,42.3,33.8,37.1,33.6,28.2,97,74,42,30.22,30.10,19,1,19,0.00
2013-5-14,71.3,52.1,29.3,48.4,35.3,26.3,97,59,24,30.25,29.97,16,2,16,0.00
2013-5-15,83.7,63.9,59.2,56.0,50.7,48.5,79,63,34,30.00,29.84,21,5,21,0.00
2013-5-16,74.8,64.8,55.1,62.8,57.2,49.4,100,78,58,30.00,29.87,18,1,18,0.45
2013-5-17,78.3,64.7,50.3,64.0,58.0,50.1,100,81,52,30.09,29.99,8,1,8,0.00
2013-5-18,78.5,68.1,59.6,64.4,60.2,56.6,94,77,49,30.07,29.97,16,3,17,0.00
2013-5-19,78.7,66.6,62.5,65.3,61.3,59.0,91,84,61,30.04,29.93,16,2,16,0.02
2013-5-20,76.7,67.9,61.8,68.0,63.3,59.4,96,86,69,30.04,29.96,13,2,13,0.00
2013-5-21,84.9,70.2,56.8,69.2,62.9,56.5,100,80,46,30.02,29.84,20,1,20,0.05
2013-5-22,81.8,66.3,56.7,68.9,61.1,55.8,97,85,59,29.93,29.81,21,2,21,0.20
2013-5-23,78.3,64.9,57.9,63.2,59.1,55.3,96,83,50,29.89,29.77,16,1,16,0.09
2013-5-24,57.7,46.8,37.0,55.4,42.3,35.9,100,86,56,30.28,29.86,15,2,15,0.47
2013-5-25,58.9,44.5,28.5,42.5,36.5,28.1,100,76,46,30.40,30.28,13,1,13,0.01
2013-5-26,65.0,50.8,35.3,46.4,38.9,34.4,100,68,36,30.33,30.25,14,1,14,0.00
2013-5-27,75.0,57.9,37.4,57.4,46.3,35.0,93,67,47,30.28,30.10,14,2,14,0.01
2013-5-28,82.3,71.5,63.4,63.0,57.9,53.3,77,63,43,30.14,30.00,14,3,15,0.00
2013-5-29,84.8,73.9,63.2,64.2,60.3,57.0,84,64,41,30.15,30.05,12,2,12,0.00
2013-5-30,69.2,68.0,65.4,61.3,60.8,59.6,82,78,76,30.11,30.09,9,2,9,0.00
2013-5-31,88.3,78.9,66.2,65.1,61.3,57.1,77,56,39,30.12,29.97,13,3,13,0.00
2013-6-1,87.8,76.3,67.5,66.6,62.2,58.4,75,63,43,30.00,29.85,15,3,15,0.00
2013-6-2,72.5,67.7,60.1,68.6,63.0,59.4,100,86,68,29.89,29.82,16,2,16,0.62
2013-6-3,69.7,62.8,57.0,65.8,60.3,56.6,100,92,74,30.01,29.85,7,1,7,0.05
2013-6-4,74.0,62.0,50.9,60.1,55.3,50.2,100,81,56,30.10,30.00,8,1,10,0.01
2013-6-5,81.2,68.8,53.9,65.8,60.0,49.8,90,74,56,30.08,29.89,17,4,19,0.00
2013-6-6,74.0,66.6,62.1,65.8,62.0,58.1,97,85,75,29.95,29.74,23,3,23,0.23
2013-6-7,67.3,62.6,58.5,65.5,62.2,58.2,100,98,93,29.85,29.69,8,1,9,0.38
2013-6-8,76.5,64.4,56.3,63.0,58.4,54.8,100,83,55,30.09,29.84,7,1,7,0.02
2013-6-9,85.8,70.0,55.1,66.0,60.0,54.1,97,74,40,30.13,29.98,12,1,13,0.09
2013-6-10,72.0,66.2,60.9,69.2,63.3,59.3,97,91,73,29.99,29.81,16,2,20,0.87
2013-6-11,77.7,66.1,60.7,67.5,63.0,59.6,100,91,65,29.96,29.84,13,1,13,0.48
2013-6-12,83.9,71.9,61.3,73.9,67.6,60.7,100,87,66,29.96,29.81,12,1,12,0.03
2013-6-13,72.8,66.5,57.0,69.9,64.6,56.7,100,94,81,29.83,29.59,16,2,17,1.11
2013-6-14,68.8,61.3,51.2,60.4,56.6,50.9,100,86,70,30.00,29.81,8,1,9,0.01
2013-6-15,77.8,68.9,49.9,60.9,58.0,49.6,99,70,49,30.13,29.98,9,1,9,0.01
2013-6-16,78.6,67.1,55.7,69.3,62.4,54.6,100,86,67,30.06,29.96,14,2,14,0.45
2013-6-17,82.2,70.1,61.3,72.2,65.6,60.4,100,87,60,30.00,29.88,9,1,9,0.05
2013-6-18,71.0,64.5,59.5,65.4,62.7,59.4,100,94,78,29.94,29.83,8,0,8,0.93
2013-6-19,77.5,65.7,57.0,66.2,60.8,56.7,100,86,54,30.11,29.93,9,1,10,0.00
2013-6-20,82.5,68.4,55.1,65.9,60.4,55.1,100,79,46,30.20,30.11,8,1,8,0.00
2013-6-21,81.3,69.0,62.4,68.0,63.1,60.6,95,82,58,30.21,30.17,10,1,11,0.00
2013-6-22,82.4,71.4,65.3,67.4,62.9,55.7,86,75,51,30.21,30.07,14,2,14,0.00
2013-6-23,86.3,75.0,65.1,69.6,64.4,60.1,92,71,46,30.15,30.05,10,1,10,0.00
2013-6-24,85.3,72.0,61.3,71.7,65.7,60.3,100,82,56,30.15,30.02,13,1,13,0.26
2013-6-25,84.8,72.4,62.0,72.8,67.0,61.9,100,85,60,30.10,29.93,8,1,8,0.01
2013-6-26,79.9,71.9,64.9,73.2,67.8,63.3,96,87,69,29.97,29.82,11,1,16,0.07
2013-6-27,72.7,68.9,65.0,69.5,66.4,64.0,100,92,83,29.83,29.69,12,2,12,0.58
2013-6-28,81.6,71.8,61.5,71.5,64.9,59.8,100,81,49,29.73,29.54,21,2,21,0.64
2013-6-29,78.8,67.1,54.1,67.8,61.6,53.8,100,84,58,29.69,29.57,11,1,11,0.18
2013-6-30,84.5,72.1,58.9,69.0,63.7,57.8,100,77,47,29.78,29.67,9,1,9,0.01
2013-7-1,82.7,71.1,64.5,70.8,66.0,61.8,100,85,60,29.92,29.76,7,1,10,0.13
2013-7-2,79.0,70.2,64.9,70.4,66.3,64.3,100,88,68,30.06,29.89,14,2,15,0.75
2013-7-3,79.1,70.5,67.6,70.3,66.1,64.0,92,86,71,30.16,30.06,17,3,17,0.03
2013-7-4,83.9,74.3,67.6,71.6,67.4,64.0,95,80,61,30.20,30.08,17,3,17,0.05
2013-7-5,81.5,72.2,67.6,74.9,68.3,63.7,100,88,68,30.16,30.08,16,2,16,0.33
2013-7-6,84.8,74.5,63.6,72.1,66.6,63.3,100,78,52,30.16,30.04,12,2,15,0.00
2013-7-7,75.7,69.5,62.9,70.9,67.2,62.9,100,92,80,30.13,30.02,15,1,16,0.47
2013-7-8,80.7,69.6,60.9,70.5,65.6,60.6,100,88,61,30.17,30.09,9,0,9,0.01
2013-7-9,85.2,73.7,64.6,72.9,68.0,64.0,100,84,56,30.13,30.01,8,1,8,0.00
2013-7-10,82.5,71.7,65.3,77.0,69.1,64.7,100,92,77,30.03,29.89,15,1,15,1.31
2013-7-11,76.2,67.7,62.6,70.4,66.2,62.3,100,95,80,29.95,29.88,7,0,7,0.01
2013-7-12,73.5,66.5,58.8,67.3,64.3,56.6,100,93,76,30.06,29.91,10,1,10,2.37
2013-7-13,79.8,67.1,53.0,69.0,62.4,52.7,100,86,69,30.17,30.01,10,1,12,0.00
2013-7-14,83.5,74.7,67.5,70.7,66.9,64.2,93,77,59,30.26,30.14,17,2,17,0.00
2013-7-15,86.7,75.6,63.9,72.9,68.6,63.1,100,80,54,30.32,30.22,9,1,9,0.00
2013-7-16,87.5,76.4,64.1,73.7,69.6,64.0,100,81,56,30.30,30.21,9,1,10,0.00
2013-7-17,87.5,76.4,66.7,76.1,71.8,66.4,100,87,64,30.26,30.12,11,1,11,0.01
2013-7-18,87.3,77.3,69.3,76.7,72.3,69.0,100,86,64,30.18,30.03,13,0,14,0.01
2013-7-19,86.3,73.9,66.2,77.6,70.5,65.8,100,90,67,30.06,29.91,17,1,17,0.87
2013-7-20,85.7,73.8,65.7,75.2,69.6,64.9,100,88,60,29.96,29.84,12,1,12,0.01
2013-7-21,82.0,70.8,64.4,73.8,68.8,64.3,100,94,70,30.00,29.88,24,0,24,1.83
2013-7-22,81.5,71.8,67.0,72.7,69.0,66.7,100,92,70,29.93,29.76,11,1,12,0.34
2013-7-23,80.5,71.5,66.9,71.5,68.0,66.0,100,89,68,29.81,29.73,11,1,11,0.33
2013-7-24,76.2,67.3,59.2,70.4,64.4,58.3,100,91,69,29.92,29.72,11,1,11,0.40
2013-7-25,74.2,62.2,53.6,61.3,57.2,53.3,100,86,58,30.09,29.91,8,1,8,0.01
2013-7-26,81.8,66.0,50.0,64.5,57.9,49.7,100,79,45,30.10,29.99,8,1,9,0.00
2013-7-27,74.7,65.9,60.7,68.3,63.5,59.6,100,92,78,30.00,29.86,17,2,17,0.93
2013-7-28,75.7,66.8,57.1,66.3,61.8,55.7,100,85,64,30.04,29.85,15,1,15,0.16
2013-7-29,72.8,61.3,48.4,59.2,54.4,48.1,100,80,53,30.23,30.04,7,1,11,0.01
2013-7-30,77.5,65.1,51.3,62.8,57.7,50.5,100,79,52,30.25,30.15,7,0,7,0.00
2013-7-31,66.9,62.5,59.0,63.8,60.9,57.7,100,95,86,30.15,29.98,6,1,10,0.21
2013-8-1,75.4,66.8,61.1,70.3,64.8,60.8,100,94,78,29.98,29.89,8,0,9,0.16
2013-8-2,78.0,66.5,55.1,65.6,60.2,54.8,100,83,53,30.04,29.94,9,1,11,0.01
2013-8-3,77.1,66.8,59.0,68.0,63.0,58.1,100,88,66,30.02,29.95,9,1,9,0.02
2013-8-4,74.3,66.4,55.1,65.3,60.8,54.3,100,84,62,30.08,29.97,13,1,13,0.00
2013-8-5,77.0,63.4,50.0,64.5,56.6,49.8,100,81,54,30.11,30.00,6,0,8,0.00
2013-8-6,82.8,69.1,57.9,67.9,62.3,56.5,97,81,50,30.00,29.95,9,1,11,0.00
2013-8-7,82.5,72.1,63.5,73.7,67.6,62.3,97,86,69,29.98,29.93,22,2,22,0.25
2013-8-8,81.0,75.1,67.7,73.7,71.0,66.2,97,87,76,29.98,29.94,9,3,9,0.13
2013-8-9,81.3,74.5,67.6,73.9,70.7,66.7,100,88,70,30.01,29.93,12,2,15,0.82
2013-8-10,80.3,71.5,66.2,71.3,68.1,65.7,100,90,66,30.08,29.99,7,0,8,0.53
2013-8-11,76.8,69.8,65.5,73.1,68.7,65.3,100,96,83,30.09,30.01,5,0,5,1.49
2013-8-12,81.5,71.1,64.3,71.3,67.5,64.0,100,89,64,30.06,29.90,6,0,6,0.04
2013-8-13,75.7,68.2,62.6,69.7,66.3,61.7,100,94,75,29.92,29.81,13,1,13,0.44
2013-8-14,67.5,58.4,48.9,61.7,52.8,48.1,100,83,60,30.16,29.92,10,1,12,0.00
2013-8-15,73.7,50.5,43.9,61.3,47.9,43.1,100,92,50,30.18,30.09,10,2,10,0.01
2013-8-16,79.4,69.2,53.6,61.3,56.8,50.9,92,66,43,30.13,30.07,13,1,13,0.00
2013-8-17,72.7,64.7,56.7,61.6,57.3,52.8,95,78,57,30.18,30.13,15,1,15,0.01
2013-8-18,71.8,64.8,59.9,66.9,62.4,59.0,100,92,83,30.19,30.12,9,1,15,0.16
2013-8-19,66.2,64.8,64.1,66.1,63.7,62.6,100,96,91,30.14,30.11,9,1,9,0.06
2013-8-20,81.6,68.0,56.2,69.8,61.9,55.9,100,83,56,30.18,30.10,7,3,7,0.01
2013-8-21,78.7,70.4,63.7,73.4,66.9,62.5,96,89,69,30.17,30.07,20,8,20,0.14
2013-8-22,76.2,65.4,55.9,71.7,63.5,55.6,100,94,81,30.13,30.03,9,4,9,0.24
2013-8-23,75.0,67.4,62.8,67.9,64.7,62.5,100,92,73,30.09,30.00,9,4,9,0.01
2013-8-24,77.7,62.3,52.2,65.4,59.1,51.9,100,90,54,30.29,30.11,8,1,8,0.02
2013-8-25,78.8,67.2,56.3,63.8,58.4,54.4,95,75,47,30.37,30.25,11,1,11,0.00
2013-8-26,80.7,66.8,52.4,66.5,59.8,51.6,100,80,53,30.30,30.10,8,1,8,0.00
2013-8-27,80.3,68.7,59.9,72.0,66.1,59.8,100,92,72,30.11,29.98,9,0,9,0.00
2013-8-28,83.3,72.7,65.7,73.8,70.1,65.6,100,92,69,30.01,29.83,14,1,16,1.56
2013-8-29,79.0,70.7,68.0,71.2,69.6,67.1,100,96,77,29.98,29.87,8,0,8,0.02
2013-8-30,84.7,73.4,66.8,74.6,68.5,64.0,100,85,63,29.99,29.86,13,1,13,0.07
2013-8-31,80.5,69.7,62.1,73.4,67.1,61.8,100,92,72,29.91,29.81,20,0,20,0.48
2013-9-1,78.1,69.5,62.1,71.7,66.9,61.6,100,92,74,29.86,29.78,8,0,8,0.03
2013-9-2,82.2,70.5,61.5,72.5,67.2,61.2,100,90,66,29.87,29.78,11,1,11,0.02
2013-9-3,75.5,69.3,65.0,67.3,64.5,60.1,100,86,62,29.92,29.81,10,1,12,0.00
2013-9-4,75.5,62.5,51.2,66.3,57.5,50.9,100,86,58,30.13,30.01,6,3,6,0.01
2013-9-5,74.6,62.2,50.6,66.5,57.8,50.3,100,87,66,30.18,30.12,10,4,10,0.01
2013-9-6,76.5,64.0,56.5,63.4,56.6,51.7,100,80,46,30.19,30.10,7,3,7,0.00
2013-9-7,77.1,62.4,50.7,65.7,55.3,50.4,100,81,50,30.11,30.01,8,3,8,0.01
2013-9-8,81.3,73.0,54.8,69.9,66.3,53.7,100,81,64,30.02,29.94,7,1,7,0.00
2013-9-9,83.0,71.6,60.7,72.0,66.0,60.5,100,84,63,30.10,30.01,15,2,15,0.00
2013-9-10,85.4,71.3,67.4,73.1,66.9,64.4,97,86,62,30.17,30.08,14,1,14,0.00
2013-9-11,78.2,69.5,64.2,74.1,67.6,63.8,100,94,78,30.17,30.05,6,0,6,0.11
2013-9-12,82.1,68.3,63.5,74.7,66.6,63.2,100,95,67,30.06,29.83,14,0,14,0.68
2013-9-13,67.7,60.4,50.6,63.6,55.8,48.3,100,86,58,30.00,29.78,11,1,14,0.19
2013-9-14,64.3,53.5,44.0,51.3,47.8,43.3,100,83,57,30.16,30.00,8,1,8,0.00
2013-9-15,73.8,60.0,43.0,61.3,53.6,42.6,100,81,57,30.21,30.10,13,2,13,0.00
2013-9-16,63.5,57.6,49.5,60.1,55.7,49.3,100,93,82,30.27,30.09,9,0,9,0.03
2013-9-17,70.2,56.0,42.2,58.2,50.0,42.2,100,83,54,30.34,30.24,14,1,14,0.02
2013-9-18,71.3,60.4,53.7,62.1,55.0,48.4,96,83,67,30.25,30.13,18,1,18,0.01
2013-9-19,71.0,63.7,59.5,66.4,62.3,58.6,100,95,84,30.15,30.04,6,0,6,0.17
2013-9-20,77.7,68.3,62.5,71.7,65.9,62.3,100,93,75,30.05,29.85,12,1,13,4.03
2013-9-21,66.7,62.6,56.9,64.6,61.0,56.6,100,94,88,29.87,29.68,20,2,20,1.00
2013-9-22,66.2,57.6,49.7,56.7,53.9,48.6,100,88,61,29.99,29.79,10,1,10,0.00
2013-9-23,65.7,52.5,43.8,54.6,48.8,43.6,100,89,60,30.10,29.98,12,0,12,0.00
2013-9-24,71.3,53.9,41.8,61.9,50.2,41.6,100,89,60,30.10,29.99,10,1,10,0.01
2013-9-25,65.7,61.8,51.1,62.3,59.8,50.8,100,94,78,29.97,29.87,8,0,8,0.04
2013-9-26,72.5,65.2,50.9,62.0,56.9,50.6,100,76,57,30.02,29.93,7,1,8,0.01
2013-9-27,73.1,59.1,46.4,62.4,52.7,46.1,100,82,54,30.16,30.07,7,4,7,0.01
2013-9-28,71.4,61.7,53.7,58.6,53.5,49.0,87,75,59,30.22,30.14,13,9,13,0.00
2013-9-29,72.1,65.9,53.1,60.7,56.1,47.4,94,71,58,30.13,30.01,15,2,15,0.00
2013-9-30,68.1,61.0,52.4,62.0,56.5,51.6,97,86,67,30.06,30.00,8,4,8,0.00
2013-10-1,72.0,60.8,51.3,64.1,56.8,51.0,100,88,62,30.14,30.05,7,3,7,0.00
2013-10-2,76.6,61.8,51.9,66.2,57.4,51.6,100,87,59,30.17,30.08,7,3,7,0.01
2013-10-3,77.2,63.9,55.2,68.2,59.9,55.2,100,88,66,30.12,30.05,6,3,6,0.01
2013-10-4,79.2,71.1,55.3,66.7,63.9,55.0,100,79,61,30.15,30.07,3,1,7,0.00
2013-10-5,82.1,68.3,56.1,68.8,62.5,55.8,100,83,59,30.12,29.99,5,1,8,0.01
2013-10-6,81.5,71.9,64.9,65.0,61.6,59.1,87,71,52,29.99,29.78,13,3,18,0.00
2013-10-7,69.0,55.0,42.5,61.9,50.8,41.7,100,86,65,30.13,29.72,16,2,21,0.57
2013-10-8,67.3,51.0,37.6,52.5,45.4,36.8,100,83,50,30.27,30.13,4,1,8,0.00
2013-10-9,72.6,56.1,36.6,46.9,39.4,28.4,97,60,23,30.28,30.19,7,1,12,0.01
2013-10-10,69.2,57.6,47.5,57.7,51.1,40.3,94,80,60,30.19,30.03,5,1,11,0.00
2013-10-11,60.2,55.9,53.2,57.5,54.9,52.4,100,96,90,30.04,29.99,4,0,8,0.02
2013-10-12,67.8,58.5,50.7,61.2,56.7,50.4,100,94,78,30.12,30.02,4,0,5,0.06
2013-10-13,70.2,61.2,56.3,63.8,59.7,56.0,100,95,78,30.23,30.12,2,0,5,0.28
2013-10-14,69.9,61.1,53.9,64.0,59.0,53.6,100,93,75,30.26,30.16,2,0,7,0.01
2013-10-15,71.9,58.3,50.5,57.5,52.9,49.7,100,84,49,30.19,30.07,5,0,8,0.01
2013-10-16,69.4,61.4,56.7,59.1,55.8,48.9,100,83,68,30.01,29.92,6,1,14,0.01
2013-10-17,64.1,57.1,47.2,62.3,56.1,46.5,100,96,88,29.97,29.73,6,1,17,0.32
2013-10-18,61.2,48.9,39.1,48.8,44.2,38.3,100,86,53,30.08,29.96,4,0,9,0.00
2013-10-19,58.2,46.4,38.2,50.3,44.0,38.1,100,92,67,30.02,29.83,6,1,18,0.06
2013-10-20,58.1,43.9,34.7,42.2,37.5,34.2,100,81,46,30.14,30.02,6,0,8,0.00
2013-10-21,66.9,52.5,35.7,45.7,38.9,33.8,94,63,31,30.13,29.95,10,2,15,0.00
2013-10-22,52.8,45.4,36.5,45.3,41.0,35.7,100,86,59,29.98,29.88,7,1,11,0.08
2013-10-23,43.5,37.0,32.1,42.6,36.6,32.0,100,99,93,30.06,29.75,8,1,15,0.31
2013-10-24,34.8,33.7,31.8,34.5,33.4,31.6,99,99,99,30.16,30.06,4,2,8,0.00
2013-10-25,34.8,33.9,26.0,34.5,33.6,25.3,100,99,97,30.41,30.15,3,3,4,0.32
2013-10-26,52.3,38.3,24.7,32.7,27.3,23.6,100,69,34,30.40,30.07,8,2,16,0.04
2013-10-27,57.4,45.9,36.6,41.9,36.8,31.6,92,72,49,30.13,30.06,6,1,13,0.00
2013-10-28,58.3,45.9,34.2,51.3,43.1,33.4,100,91,64,30.30,30.13,5,0,7,0.06
2013-10-29,63.9,54.1,49.2,53.8,50.3,48.9,100,88,63,30.35,30.24,5,0,6,0.03
2013-10-30,60.1,56.2,52.7,58.5,54.9,49.1,100,96,81,30.24,30.13,5,1,11,0.34
2013-10-31,64.9,61.5,59.1,58.1,55.6,52.7,92,81,69,30.12,29.59,12,3,22,0.03
2013-11-1,67.7,58.5,47.7,59.2,52.1,44.9,100,81,49,29.73,29.54,13,2,21,1.12
2013-11-2,54.5,47.5,42.1,45.2,40.3,35.0,97,77,50,30.01,29.70,11,1,15,0.00
2013-11-3,46.5,40.1,31.9,39.8,35.3,30.3,95,83,61,30.42,30.01,6,1,10,0.00
2013-11-4,54.1,43.0,28.3,33.8,29.4,24.6,96,61,42,30.51,30.39,7,2,13,0.00
2013-11-5,58.7,47.2,38.3,46.0,32.5,25.1,86,58,32,30.52,30.38,8,2,16,0.00
2013-11-6,71.4,57.9,49.1,52.7,49.1,45.4,91,74,50,30.39,30.00,12,4,18,0.00
2013-11-7,58.6,43.9,29.5,52.7,40.3,26.5,100,87,72,30.20,29.92,8,2,17,0.42
2013-11-8,44.9,33.8,26.9,31.0,27.4,24.5,93,78,53,30.38,30.20,8,1,17,0.00
2013-11-9,56.9,39.0,26.7,27.3,25.5,20.6,94,63,25,30.36,30.14,14,2,15,0.00
2013-11-10,51.5,37.7,26.6,37.0,28.3,23.8,91,70,47,30.35,30.15,25,1,25,0.00
2013-11-11,63.1,42.3,25.7,34.7,25.1,15.2,95,58,17,30.36,30.11,10,1,10,0.00
2013-11-12,50.4,31.1,23.6,38.6,26.5,20.7,96,86,32,30.55,30.09,15,3,15,0.05
2013-11-13,30.7,24.1,19.2,23.4,19.8,17.3,94,84,69,30.66,30.52,10,1,10,0.00
2013-11-14,53.1,33.1,18.6,28.1,20.1,15.9,92,64,25,30.53,30.32,10,1,10,0.05
2013-11-15,59.3,42.4,28.1,44.4,29.5,19.4,97,64,29,30.34,30.21,12,1,13,0.17
2013-11-16,64.5,53.1,45.8,52.7,48.3,44.2,95,84,64,30.24,30.08,22,2,22,0.01
2013-11-17,65.4,58.0,52.1,57.9,52.7,47.4,94,83,68,30.09,29.69,23,5,32,0.42
2013-11-18,52.1,47.8,43.1,47.9,42.4,39.2,94,82,76,29.90,29.82,11,2,12,0.02
2013-11-19,48.3,37.9,27.8,41.4,31.1,24.0,88,77,64,30.37,29.90,9,2,9,0.02
2013-11-20,48.2,37.6,26.9,27.1,23.8,21.4,92,59,38,30.45,30.34,23,3,23,0.00
2013-11-21,57.3,47.0,36.7,47.4,38.6,25.7,79,73,63,30.45,30.30,28,3,28,0.00
2013-11-22,56.1,52.8,42.9,55.1,50.8,42.6,100,93,78,30.30,30.10,18,2,18,0.56
2013-11-23,42.9,32.9,20.6,42.9,29.7,15.6,100,89,62,30.37,30.16,23,3,23,0.10
2013-11-24,22.8,17.1,11.0,15.6,8.0,4.4,89,68,49,30.61,30.36,19,3,22,0.00
2013-11-25,44.7,27.8,10.3,30.0,13.6,6.6,95,61,24,30.63,30.33,24,1,24,0.00
2013-11-26,46.9,39.7,31.3,45.3,38.5,30.0,100,95,90,30.33,29.73,19,2,20,1.80
2013-11-27,32.5,24.2,18.8,32.4,22.9,15.5,100,95,87,30.28,29.74,17,3,17,0.00
2013-11-28,33.4,24.6,18.5,23.1,18.9,15.3,92,80,61,30.53,30.27,8,1,10,0.06
2013-11-29,36.9,27.1,16.5,26.8,21.2,14.8,95,80,59,30.68,30.52,16,0,16,0.03
2013-11-30,43.2,35.5,29.0,27.0,23.4,20.3,71,61,51,30.60,30.30,18,2,18,0.01
2013-12-1,49.9,39.4,27.3,34.8,28.4,21.9,85,65,47,30.30,30.02,11,1,11,0.00
2013-12-2,53.2,43.3,37.3,39.9,36.3,33.3,89,77,59,30.02,29.82,9,1,9,0.00
2013-12-3,54.6,47.2,37.9,44.5,40.5,35.1,93,78,66,29.92,29.83,16,1,17,0.00
2013-12-4,65.2,55.3,48.0,52.4,48.0,43.7,89,77,60,29.99,29.88,18,3,19,0.00
2013-12-5,65.8,59.9,49.2,58.3,54.2,48.3,100,82,71,29.97,29.86,21,4,21,0.22
2013-12-6,49.0,38.9,34.0,48.1,38.8,34.0,100,99,95,30.19,29.93,9,1,9,1.69
2013-12-7,33.2,27.3,23.7,33.2,26.5,22.8,100,97,95,30.55,30.21,9,1,9,0.44
2013-12-8,39.9,30.9,23.9,38.6,29.0,23.2,100,93,79,30.53,30.10,25,3,25,0.26
2013-12-9,42.6,39.3,32.7,41.8,38.9,32.7,100,99,94,30.18,30.06,16,2,18,0.32
2013-12-10,31.5,23.9,15.4,31.5,22.0,14.0,100,92,82,30.37,30.02,14,1,14,0.00
2013-12-11,38.4,24.9,13.6,28.4,20.0,12.2,96,83,57,30.49,30.34,12,1,12,0.12
2013-12-12,27.0,19.5,12.5,21.5,12.9,8.9,89,76,52,30.53,30.41,13,2,13,0.00
2013-12-13,39.4,24.5,10.4,24.2,14.4,8.1,92,69,37,30.44,30.32,12,1,12,0.02
2013-12-14,40.9,36.0,31.2,39.1,32.9,21.0,97,89,63,30.35,29.74,23,4,30,0.24
2013-12-15,39.5,30.2,26.8,39.4,28.7,23.7,100,94,88,30.11,29.74,11,3,18,0.05
2013-12-16,37.6,31.0,25.5,31.7,27.6,23.3,95,87,79,30.21,30.09,10,1,11,0.04
2013-12-17,38.3,34.3,27.6,34.7,31.9,25.6,100,91,81,30.14,29.97,15,1,16,0.20
2013-12-18,36.7,27.5,19.7,30.2,24.0,18.1,96,87,69,30.29,30.14,9,0,9,0.08
2013-12-19,58.8,45.0,30.9,34.6,26.4,19.2,80,50,30,30.30,30.11,14,2,15,0.27
2013-12-20,58.4,53.5,46.9,49.6,34.3,23.0,75,50,30,30.14,30.00,18,4,19,0.00
2013-12-21,67.1,62.1,57.5,58.3,52.1,46.8,80,70,59,30.00,29.76,19,5,19,0.00
2013-12-22,67.6,59.0,53.9,58.2,55.3,51.3,97,88,72,29.96,29.71,24,4,24,0.93
2013-12-23,53.8,35.0,27.3,53.0,33.8,23.8,100,95,87,30.30,29.94,11,2,13,0.41
2013-12-24,27.4,21.1,8.5,24.7,17.7,6.7,94,86,69,30.54,30.28,16,2,16,0.00
2013-12-25,38.8,22.6,5.9,18.8,10.2,3.8,94,63,32,30.55,30.33,12,2,13,0.01
2013-12-26,38.4,31.6,22.7,25.7,21.0,13.7,90,66,46,30.43,30.27,15,2,15,0.00
2013-12-27,47.5,30.3,18.7,26.1,19.8,14.9,92,70,33,30.50,30.41,10,1,10,0.00
2013-12-28,52.6,36.6,23.2,32.8,23.6,19.8,87,63,30,30.43,30.14,9,1,10,0.03
2013-12-29,44.0,40.2,36.4,44.0,39.1,32.8,100,96,75,30.14,29.72,15,3,19,1.28
2013-12-30,37.2,29.9,26.6,36.6,29.1,25.9,100,97,94,30.20,29.95,15,1,15,0.02
2013-12-31,30.6,25.4,19.7,26.7,22.2,18.3,96,88,72,30.40,30.18,24,1,24,0.00
2014-1-1,50.1,34.5,19.7,33.7,22.7,18.3,94,66,30,30.42,30.09,11,1,12,0.10
2014-1-2,39.7,32.7,14.3,38.6,27.2,12.4,96,82,53,30.09,29.64,19,2,19,0.18